Year,Month,Day,Hour,Minute,Value (Times are PST for temperature in C)
2015,06,13,00,00,16.20
2015,06,13,00,01,16.20
2015,06,13,00,02,16.20
2015,06,13,00,03,16.20
2015,06,13,00,04,16.10
2015,06,13,00,05,16.10
2015,06,13,00,06,16.10
2015,06,13,00,07,16.10
2015,06,13,00,08,16.10
2015,06,13,00,09,16.10
2015,06,13,00,10,16.10
2015,06,13,00,11,16.10
2015,06,13,00,12,16.10
2015,06,13,00,13,16.10
2015,06,13,00,14,16.10
2015,06,13,00,15,16.10
2015,06,13,00,16,16.10
2015,06,13,00,17,16.00
2015,06,13,00,18,16.00
2015,06,13,00,19,16.00
2015,06,13,00,20,15.90
2015,06,13,00,21,15.90
2015,06,13,00,22,15.90
2015,06,13,00,23,15.90
2015,06,13,00,24,15.80
2015,06,13,00,25,15.80
2015,06,13,00,26,15.80
2015,06,13,00,27,15.80
2015,06,13,00,28,15.80
2015,06,13,00,29,15.80
2015,06,13,00,30,15.70
2015,06,13,00,31,15.70
2015,06,13,00,32,15.70
2015,06,13,00,33,15.70
2015,06,13,00,34,15.70
2015,06,13,00,35,15.70
2015,06,13,00,36,15.70
2015,06,13,00,37,15.60
2015,06,13,00,38,15.60
2015,06,13,00,39,15.60
2015,06,13,00,40,15.60
2015,06,13,00,41,15.60
2015,06,13,00,42,15.60
2015,06,13,00,43,15.50
2015,06,13,00,44,15.50
2015,06,13,00,45,15.50
2015,06,13,00,46,15.40
2015,06,13,00,47,15.40
2015,06,13,00,48,15.40
2015,06,13,00,49,15.40
2015,06,13,00,50,15.40
2015,06,13,00,51,15.40
2015,06,13,00,52,15.40
2015,06,13,00,53,15.40
2015,06,13,00,54,15.40
2015,06,13,00,55,15.40
2015,06,13,00,56,15.40
2015,06,13,00,57,15.40
2015,06,13,00,58,15.40
2015,06,13,00,59,15.30
2015,06,13,01,00,15.30
2015,06,13,01,01,15.30
2015,06,13,01,02,15.20
2015,06,13,01,03,15.20
2015,06,13,01,04,15.10
2015,06,13,01,05,15.10
2015,06,13,01,06,15.10
2015,06,13,01,07,15.00
2015,06,13,01,08,15.00
2015,06,13,01,09,15.00
2015,06,13,01,10,14.90
2015,06,13,01,11,14.90
2015,06,13,01,12,14.90
2015,06,13,01,13,14.90
2015,06,13,01,14,14.90
2015,06,13,01,15,14.90
2015,06,13,01,16,14.80
2015,06,13,01,17,14.80
2015,06,13,01,18,14.80
2015,06,13,01,19,14.70
2015,06,13,01,20,14.70
2015,06,13,01,21,14.70
2015,06,13,01,22,14.70
2015,06,13,01,23,14.70
2015,06,13,01,24,14.70
2015,06,13,01,25,14.70
2015,06,13,01,26,14.70
2015,06,13,01,27,14.70
2015,06,13,01,28,14.80
2015,06,13,01,29,14.80
2015,06,13,01,30,14.80
2015,06,13,01,31,14.80
2015,06,13,01,32,14.80
2015,06,13,01,33,14.80
2015,06,13,01,34,14.80
2015,06,13,01,35,14.80
2015,06,13,01,36,14.80
2015,06,13,01,37,14.80
2015,06,13,01,38,14.80
2015,06,13,01,39,14.90
2015,06,13,01,40,14.90
2015,06,13,01,41,14.80
2015,06,13,01,42,14.80
2015,06,13,01,43,14.80
2015,06,13,01,44,14.80
2015,06,13,01,45,14.80
2015,06,13,01,46,14.80
2015,06,13,01,47,14.80
2015,06,13,01,48,14.80
2015,06,13,01,49,14.70
2015,06,13,01,50,14.70
2015,06,13,01,51,14.70
2015,06,13,01,52,14.70
2015,06,13,01,53,14.60
2015,06,13,01,54,14.60
2015,06,13,01,55,14.60
2015,06,13,01,56,14.60
2015,06,13,01,57,14.60
2015,06,13,01,58,14.60
2015,06,13,01,59,14.60
2015,06,13,02,00,14.50
2015,06,13,02,01,14.50
2015,06,13,02,02,14.50
2015,06,13,02,03,14.40
2015,06,13,02,04,14.40
2015,06,13,02,05,14.40
2015,06,13,02,06,14.40
2015,06,13,02,07,14.30
2015,06,13,02,08,14.30
2015,06,13,02,09,14.30
2015,06,13,02,10,14.30
2015,06,13,02,11,14.30
2015,06,13,02,12,14.20
2015,06,13,02,13,14.20
2015,06,13,02,14,14.20
2015,06,13,02,15,14.20
2015,06,13,02,16,14.20
2015,06,13,02,17,14.10
2015,06,13,02,18,14.10
2015,06,13,02,19,14.10
2015,06,13,02,20,14.10
2015,06,13,02,21,14.00
2015,06,13,02,22,14.00
2015,06,13,02,23,13.90
2015,06,13,02,24,13.90
2015,06,13,02,25,13.90
2015,06,13,02,26,13.90
2015,06,13,02,27,13.90
2015,06,13,02,28,13.90
2015,06,13,02,29,13.90
2015,06,13,02,30,13.90
2015,06,13,02,31,13.80
2015,06,13,02,32,13.80
2015,06,13,02,33,13.80
2015,06,13,02,34,13.80
2015,06,13,02,35,13.80
2015,06,13,02,36,13.80
2015,06,13,02,37,13.70
2015,06,13,02,38,13.70
2015,06,13,02,39,13.70
2015,06,13,02,40,13.70
2015,06,13,02,41,13.70
2015,06,13,02,42,13.70
2015,06,13,02,43,13.60
2015,06,13,02,44,13.60
2015,06,13,02,45,13.60
2015,06,13,02,46,13.60
2015,06,13,02,47,13.60
2015,06,13,02,48,13.60
2015,06,13,02,49,13.60
2015,06,13,02,50,13.50
2015,06,13,02,51,13.50
2015,06,13,02,52,13.50
2015,06,13,02,53,13.50
2015,06,13,02,54,13.50
2015,06,13,02,55,13.50
2015,06,13,02,56,13.50
2015,06,13,02,57,13.50
2015,06,13,02,58,13.50
2015,06,13,02,59,13.50
2015,06,13,03,00,13.50
2015,06,13,03,01,13.50
2015,06,13,03,02,13.50
2015,06,13,03,03,13.40
2015,06,13,03,04,13.40
2015,06,13,03,05,13.40
2015,06,13,03,06,13.40
2015,06,13,03,07,13.40
2015,06,13,03,08,13.40
2015,06,13,03,09,13.40
2015,06,13,03,10,13.40
2015,06,13,03,11,13.40
2015,06,13,03,12,13.30
2015,06,13,03,13,13.30
2015,06,13,03,14,13.30
2015,06,13,03,15,13.30
2015,06,13,03,16,13.30
2015,06,13,03,17,13.30
2015,06,13,03,18,13.30
2015,06,13,03,19,13.30
2015,06,13,03,20,13.30
2015,06,13,03,21,13.30
2015,06,13,03,22,13.30
2015,06,13,03,23,13.30
2015,06,13,03,24,13.30
2015,06,13,03,25,13.30
2015,06,13,03,26,13.30
2015,06,13,03,27,13.30
2015,06,13,03,28,13.20
2015,06,13,03,29,13.20
2015,06,13,03,30,13.20
2015,06,13,03,31,13.20
2015,06,13,03,32,13.20
2015,06,13,03,33,13.20
2015,06,13,03,34,13.20
2015,06,13,03,35,13.20
2015,06,13,03,36,13.20
2015,06,13,03,37,13.20
2015,06,13,03,38,13.20
2015,06,13,03,39,13.20
2015,06,13,03,40,13.20
2015,06,13,03,41,13.20
2015,06,13,03,42,13.20
2015,06,13,03,43,13.20
2015,06,13,03,44,13.20
2015,06,13,03,45,13.20
2015,06,13,03,46,13.20
2015,06,13,03,47,13.10
2015,06,13,03,48,13.10
2015,06,13,03,49,13.10
2015,06,13,03,50,13.10
2015,06,13,03,51,13.10
2015,06,13,03,52,13.10
2015,06,13,03,53,13.10
2015,06,13,03,54,13.10
2015,06,13,03,55,13.10
2015,06,13,03,56,13.10
2015,06,13,03,57,13.10
2015,06,13,03,58,13.10
2015,06,13,03,59,13.00
2015,06,13,04,00,13.00
2015,06,13,04,01,13.00
2015,06,13,04,02,13.00
2015,06,13,04,03,13.00
2015,06,13,04,04,13.00
2015,06,13,04,05,12.90
2015,06,13,04,06,12.90
2015,06,13,04,07,12.90
2015,06,13,04,08,12.90
2015,06,13,04,09,12.90
2015,06,13,04,10,12.90
2015,06,13,04,11,12.80
2015,06,13,04,12,12.80
2015,06,13,04,13,12.80
2015,06,13,04,14,12.80
2015,06,13,04,15,12.80
2015,06,13,04,16,12.80
2015,06,13,04,17,12.80
2015,06,13,04,18,12.80
2015,06,13,04,19,12.80
2015,06,13,04,20,12.80
2015,06,13,04,21,12.80
2015,06,13,04,22,12.80
2015,06,13,04,23,12.70
2015,06,13,04,24,12.70
2015,06,13,04,25,12.70
2015,06,13,04,26,12.70
2015,06,13,04,27,12.70
2015,06,13,04,28,12.60
2015,06,13,04,29,12.60
2015,06,13,04,30,12.60
2015,06,13,04,31,12.60
2015,06,13,04,32,12.60
2015,06,13,04,33,12.60
2015,06,13,04,34,12.60
2015,06,13,04,35,12.50
2015,06,13,04,36,12.50
2015,06,13,04,37,12.50
2015,06,13,04,38,12.50
2015,06,13,04,39,12.40
2015,06,13,04,40,12.40
2015,06,13,04,41,12.30
2015,06,13,04,42,12.30
2015,06,13,04,43,12.30
2015,06,13,04,44,12.20
2015,06,13,04,45,12.20
2015,06,13,04,46,12.10
2015,06,13,04,47,12.10
2015,06,13,04,48,12.10
2015,06,13,04,49,12.00
2015,06,13,04,50,12.00
2015,06,13,04,51,11.90
2015,06,13,04,52,11.90
2015,06,13,04,53,11.90
2015,06,13,04,54,11.80
2015,06,13,04,55,11.80
2015,06,13,04,56,11.80
2015,06,13,04,57,11.80
2015,06,13,04,58,11.70
2015,06,13,04,59,11.70
2015,06,13,05,00,11.70
2015,06,13,05,01,11.60
2015,06,13,05,02,11.60
2015,06,13,05,03,11.50
2015,06,13,05,04,11.50
2015,06,13,05,05,11.50
2015,06,13,05,06,11.50
2015,06,13,05,07,11.40
2015,06,13,05,08,11.40
2015,06,13,05,09,11.40
2015,06,13,05,10,11.40
2015,06,13,05,11,11.30
2015,06,13,05,12,11.30
2015,06,13,05,13,11.30
2015,06,13,05,14,11.30
2015,06,13,05,15,11.30
2015,06,13,05,16,11.30
2015,06,13,05,17,11.30
2015,06,13,05,18,11.20
2015,06,13,05,19,11.20
2015,06,13,05,20,11.20
2015,06,13,05,21,11.20
2015,06,13,05,22,11.20
2015,06,13,05,23,11.20
2015,06,13,05,24,11.20
2015,06,13,05,25,11.20
2015,06,13,05,26,11.10
2015,06,13,05,27,11.10
2015,06,13,05,28,11.10
2015,06,13,05,29,11.10
2015,06,13,05,30,11.10
2015,06,13,05,31,11.10
2015,06,13,05,32,11.00
2015,06,13,05,33,11.00
2015,06,13,05,34,11.00
2015,06,13,05,35,11.10
2015,06,13,05,36,11.10
2015,06,13,05,37,11.10
2015,06,13,05,38,11.10
2015,06,13,05,39,11.20
2015,06,13,05,40,11.20
2015,06,13,05,41,11.30
2015,06,13,05,42,11.30
2015,06,13,05,43,11.30
2015,06,13,05,44,11.40
2015,06,13,05,45,11.40
2015,06,13,05,46,11.40
2015,06,13,05,47,11.40
2015,06,13,05,48,11.40
2015,06,13,05,49,11.40
2015,06,13,05,50,11.40
2015,06,13,05,51,11.40
2015,06,13,05,52,11.40
2015,06,13,05,53,11.40
2015,06,13,05,54,11.50
2015,06,13,05,55,11.50
2015,06,13,05,56,11.50
2015,06,13,05,57,11.50
2015,06,13,05,58,11.50
2015,06,13,05,59,11.40
2015,06,13,06,00,11.40
2015,06,13,06,01,11.30
2015,06,13,06,02,11.30
2015,06,13,06,03,11.20
2015,06,13,06,04,11.20
2015,06,13,06,05,11.20
2015,06,13,06,06,11.20
2015,06,13,06,07,11.20
2015,06,13,06,08,11.10
2015,06,13,06,09,10.90
2015,06,13,06,10,10.90
2015,06,13,06,11,10.90
2015,06,13,06,12,10.90
2015,06,13,06,13,10.90
2015,06,13,06,14,10.80
2015,06,13,06,15,10.80
2015,06,13,06,16,10.70
2015,06,13,06,17,10.70
2015,06,13,06,18,10.60
2015,06,13,06,19,10.60
2015,06,13,06,20,10.50
2015,06,13,06,21,10.50
2015,06,13,06,22,10.50
2015,06,13,06,23,10.50
2015,06,13,06,24,10.50
2015,06,13,06,25,10.50
2015,06,13,06,26,10.50
2015,06,13,06,27,10.50
2015,06,13,06,28,10.40
2015,06,13,06,29,10.40
2015,06,13,06,30,10.40
2015,06,13,06,31,10.30
2015,06,13,06,32,10.30
2015,06,13,06,33,10.30
2015,06,13,06,34,10.30
2015,06,13,06,35,10.30
2015,06,13,06,36,10.20
2015,06,13,06,37,10.20
2015,06,13,06,38,10.20
2015,06,13,06,39,10.20
2015,06,13,06,40,10.30
2015,06,13,06,41,10.30
2015,06,13,06,42,10.40
2015,06,13,06,43,10.50
2015,06,13,06,44,10.50
2015,06,13,06,45,10.60
2015,06,13,06,46,10.70
2015,06,13,06,47,10.80
2015,06,13,06,48,10.80
2015,06,13,06,49,10.90
2015,06,13,06,50,10.90
2015,06,13,06,51,11.00
2015,06,13,06,52,11.00
2015,06,13,06,53,11.10
2015,06,13,06,54,11.20
2015,06,13,06,55,11.20
2015,06,13,06,56,11.30
2015,06,13,06,57,11.30
2015,06,13,06,58,11.30
2015,06,13,06,59,11.30
2015,06,13,07,00,11.40
2015,06,13,07,01,11.40
2015,06,13,07,02,11.40
2015,06,13,07,03,11.50
2015,06,13,07,04,11.50
2015,06,13,07,05,11.50
2015,06,13,07,06,11.60
2015,06,13,07,07,11.60
2015,06,13,07,08,11.70
2015,06,13,07,09,11.70
2015,06,13,07,10,11.70
2015,06,13,07,11,11.80
2015,06,13,07,12,11.80
2015,06,13,07,13,11.90
2015,06,13,07,14,11.90
2015,06,13,07,15,11.90
2015,06,13,07,16,11.90
2015,06,13,07,17,11.90
2015,06,13,07,18,12.00
2015,06,13,07,19,12.00
2015,06,13,07,20,12.10
2015,06,13,07,21,12.10
2015,06,13,07,22,12.10
2015,06,13,07,23,12.20
2015,06,13,07,24,12.30
2015,06,13,07,25,12.30
2015,06,13,07,26,12.40
2015,06,13,07,27,12.40
2015,06,13,07,28,12.50
2015,06,13,07,29,12.50
2015,06,13,07,30,12.50
2015,06,13,07,31,12.60
2015,06,13,07,32,12.60
2015,06,13,07,33,12.60
2015,06,13,07,34,12.60
2015,06,13,07,35,12.70
2015,06,13,07,36,12.70
2015,06,13,07,37,12.70
2015,06,13,07,38,12.80
2015,06,13,07,39,12.80
2015,06,13,07,40,12.90
2015,06,13,07,41,13.00
2015,06,13,07,42,13.00
2015,06,13,07,43,13.10
2015,06,13,07,44,13.20
2015,06,13,07,45,13.20
2015,06,13,07,46,13.20
2015,06,13,07,47,13.30
2015,06,13,07,48,13.30
2015,06,13,07,49,13.30
2015,06,13,07,50,13.40
2015,06,13,07,51,13.40
2015,06,13,07,52,13.50
2015,06,13,07,53,13.50
2015,06,13,07,54,13.60
2015,06,13,07,55,13.60
2015,06,13,07,56,13.60
2015,06,13,07,57,13.60
2015,06,13,07,58,13.70
2015,06,13,07,59,13.80
2015,06,13,08,00,13.80
2015,06,13,08,01,13.80
2015,06,13,08,02,13.80
2015,06,13,08,03,13.80
2015,06,13,08,04,13.90
2015,06,13,08,05,14.00
2015,06,13,08,06,14.10
2015,06,13,08,07,14.20
2015,06,13,08,08,14.30
2015,06,13,08,09,14.30
2015,06,13,08,10,14.50
2015,06,13,08,11,14.50
2015,06,13,08,12,14.60
2015,06,13,08,13,14.70
2015,06,13,08,14,14.80
2015,06,13,08,15,14.90
2015,06,13,08,16,14.90
2015,06,13,08,17,14.90
2015,06,13,08,18,14.90
2015,06,13,08,19,15.00
2015,06,13,08,20,15.00
2015,06,13,08,21,15.10
2015,06,13,08,22,15.10
2015,06,13,08,23,15.10
2015,06,13,08,24,15.10
2015,06,13,08,25,15.10
2015,06,13,08,26,15.10
2015,06,13,08,27,15.00
2015,06,13,08,28,15.00
2015,06,13,08,29,15.00
2015,06,13,08,30,15.00
2015,06,13,08,31,14.90
2015,06,13,08,32,14.90
2015,06,13,08,33,14.90
2015,06,13,08,34,14.90
2015,06,13,08,35,15.00
2015,06,13,08,36,15.00
2015,06,13,08,37,15.00
2015,06,13,08,38,15.00
2015,06,13,08,39,15.00
2015,06,13,08,40,15.00
2015,06,13,08,41,15.00
2015,06,13,08,42,15.00
2015,06,13,08,43,15.10
2015,06,13,08,44,15.10
2015,06,13,08,45,15.10
2015,06,13,08,46,15.20
2015,06,13,08,47,15.20
2015,06,13,08,48,15.30
2015,06,13,08,49,15.30
2015,06,13,08,50,15.30
2015,06,13,08,51,15.30
2015,06,13,08,52,15.30
2015,06,13,08,53,15.40
2015,06,13,08,54,15.50
2015,06,13,08,55,15.50
2015,06,13,08,56,15.60
2015,06,13,08,57,15.50
2015,06,13,08,58,15.50
2015,06,13,08,59,15.40
2015,06,13,09,00,15.40
2015,06,13,09,01,15.30
2015,06,13,09,02,15.30
2015,06,13,09,03,15.30
2015,06,13,09,04,15.30
2015,06,13,09,05,15.40
2015,06,13,09,06,15.40
2015,06,13,09,07,15.50
2015,06,13,09,08,15.50
2015,06,13,09,09,15.60
2015,06,13,09,10,15.60
2015,06,13,09,11,15.70
2015,06,13,09,12,15.70
2015,06,13,09,13,15.80
2015,06,13,09,14,15.90
2015,06,13,09,15,15.90
2015,06,13,09,16,15.90
2015,06,13,09,17,16.00
2015,06,13,09,18,16.00
2015,06,13,09,19,16.10
2015,06,13,09,20,16.10
2015,06,13,09,21,16.10
2015,06,13,09,22,16.10
2015,06,13,09,23,16.10
2015,06,13,09,24,16.10
2015,06,13,09,25,16.10
2015,06,13,09,26,16.10
2015,06,13,09,27,16.20
2015,06,13,09,28,16.30
2015,06,13,09,29,16.30
2015,06,13,09,30,16.30
2015,06,13,09,31,16.40
2015,06,13,09,32,16.40
2015,06,13,09,33,16.50
2015,06,13,09,34,16.40
2015,06,13,09,35,16.50
2015,06,13,09,36,16.40
2015,06,13,09,37,16.50
2015,06,13,09,38,16.50
2015,06,13,09,39,16.50
2015,06,13,09,40,16.40
2015,06,13,09,41,16.40
2015,06,13,09,42,16.40
2015,06,13,09,43,16.40
2015,06,13,09,44,16.50
2015,06,13,09,45,16.50
2015,06,13,09,46,16.50
2015,06,13,09,47,16.60
2015,06,13,09,48,16.50
2015,06,13,09,49,16.50
2015,06,13,09,50,16.50
2015,06,13,09,51,16.50
2015,06,13,09,52,16.50
2015,06,13,09,53,16.50
2015,06,13,09,54,16.50
2015,06,13,09,55,16.50
2015,06,13,09,56,16.60
2015,06,13,09,57,16.60
2015,06,13,09,58,16.70
2015,06,13,09,59,16.70
2015,06,13,10,00,16.60
2015,06,13,10,01,16.60
2015,06,13,10,02,16.60
2015,06,13,10,03,16.60
2015,06,13,10,04,16.60
2015,06,13,10,05,16.70
2015,06,13,10,06,16.70
2015,06,13,10,07,16.80
2015,06,13,10,08,16.90
2015,06,13,10,09,16.90
2015,06,13,10,10,16.90
2015,06,13,10,11,16.90
2015,06,13,10,12,16.90
2015,06,13,10,13,16.90
2015,06,13,10,14,16.90
2015,06,13,10,15,16.90
2015,06,13,10,16,16.90
2015,06,13,10,17,16.90
2015,06,13,10,18,17.00
2015,06,13,10,19,17.00
2015,06,13,10,20,17.00
2015,06,13,10,21,17.00
2015,06,13,10,22,17.00
2015,06,13,10,23,17.00
2015,06,13,10,24,17.00
2015,06,13,10,25,17.00
2015,06,13,10,26,17.10
2015,06,13,10,27,17.10
2015,06,13,10,28,17.20
2015,06,13,10,29,17.20
2015,06,13,10,30,17.10
2015,06,13,10,31,17.10
2015,06,13,10,32,17.20
2015,06,13,10,33,17.20
2015,06,13,10,34,17.30
2015,06,13,10,35,17.30
2015,06,13,10,36,17.30
2015,06,13,10,37,17.30
2015,06,13,10,38,17.30
2015,06,13,10,39,17.30
2015,06,13,10,40,17.30
2015,06,13,10,41,17.30
2015,06,13,10,42,17.30
2015,06,13,10,43,17.40
2015,06,13,10,44,17.40
2015,06,13,10,45,17.30
2015,06,13,10,46,17.30
2015,06,13,10,47,17.30
2015,06,13,10,48,17.30
2015,06,13,10,49,17.40
2015,06,13,10,50,17.40
2015,06,13,10,51,17.40
2015,06,13,10,52,17.40
2015,06,13,10,53,17.40
2015,06,13,10,54,17.40
2015,06,13,10,55,17.40
2015,06,13,10,56,17.40
2015,06,13,10,57,17.50
2015,06,13,10,58,17.50
2015,06,13,10,59,17.60
2015,06,13,11,00,17.60
2015,06,13,11,01,17.60
2015,06,13,11,02,17.60
2015,06,13,11,03,17.60
2015,06,13,11,04,17.60
2015,06,13,11,05,17.60
2015,06,13,11,06,17.60
2015,06,13,11,07,17.60
2015,06,13,11,08,17.70
2015,06,13,11,09,17.70
2015,06,13,11,10,17.80
2015,06,13,11,11,17.90
2015,06,13,11,12,17.90
2015,06,13,11,13,17.90
2015,06,13,11,14,17.90
2015,06,13,11,15,18.00
2015,06,13,11,16,17.90
2015,06,13,11,17,17.90
2015,06,13,11,18,17.80
2015,06,13,11,19,17.80
2015,06,13,11,20,17.80
2015,06,13,11,21,17.80
2015,06,13,11,22,17.80
2015,06,13,11,23,17.80
2015,06,13,11,24,17.80
2015,06,13,11,25,17.80
2015,06,13,11,26,17.80
2015,06,13,11,27,17.80
2015,06,13,11,28,17.80
2015,06,13,11,29,17.80
2015,06,13,11,30,17.90
2015,06,13,11,31,18.00
2015,06,13,11,32,18.10
2015,06,13,11,33,18.20
2015,06,13,11,34,18.30
2015,06,13,11,35,18.40
2015,06,13,11,36,18.40
2015,06,13,11,37,18.50
2015,06,13,11,38,18.40
2015,06,13,11,39,18.40
2015,06,13,11,40,18.40
2015,06,13,11,41,18.50
2015,06,13,11,42,18.50
2015,06,13,11,43,18.60
2015,06,13,11,44,18.60
2015,06,13,11,45,18.60
2015,06,13,11,46,18.60
2015,06,13,11,47,18.70
2015,06,13,11,48,18.70
2015,06,13,11,49,18.70
2015,06,13,11,50,18.70
2015,06,13,11,51,18.70
2015,06,13,11,52,18.80
2015,06,13,11,53,18.90
2015,06,13,11,54,18.90
2015,06,13,11,55,18.90
2015,06,13,11,56,19.00
2015,06,13,11,57,19.00
2015,06,13,11,58,19.00
2015,06,13,11,59,19.00
2015,06,13,12,00,19.00
2015,06,13,12,01,19.10
2015,06,13,12,02,19.10
2015,06,13,12,03,19.10
2015,06,13,12,04,19.10
2015,06,13,12,05,19.20
2015,06,13,12,06,19.20
2015,06,13,12,07,19.10
2015,06,13,12,08,19.10
2015,06,13,12,09,19.10
2015,06,13,12,10,19.10
2015,06,13,12,11,19.10
2015,06,13,12,12,19.10
2015,06,13,12,13,19.10
2015,06,13,12,14,19.20
2015,06,13,12,15,19.20
2015,06,13,12,16,19.30
2015,06,13,12,17,19.40
2015,06,13,12,18,19.50
2015,06,13,12,19,19.60
2015,06,13,12,20,19.70
2015,06,13,12,21,19.70
2015,06,13,12,22,19.70
2015,06,13,12,23,19.70
2015,06,13,12,24,19.70
2015,06,13,12,25,19.70
2015,06,13,12,26,19.70
2015,06,13,12,27,19.70
2015,06,13,12,28,19.70
2015,06,13,12,29,19.70
2015,06,13,12,30,19.60
2015,06,13,12,31,19.60
2015,06,13,12,32,19.70
2015,06,13,12,33,19.70
2015,06,13,12,34,19.80
2015,06,13,12,35,19.70
2015,06,13,12,36,19.70
2015,06,13,12,37,19.70
2015,06,13,12,38,19.70
2015,06,13,12,39,19.70
2015,06,13,12,40,19.70
2015,06,13,12,41,19.70
2015,06,13,12,42,19.70
2015,06,13,12,43,19.70
2015,06,13,12,44,19.80
2015,06,13,12,45,19.80
2015,06,13,12,46,19.90
2015,06,13,12,47,20.00
2015,06,13,12,48,20.10
2015,06,13,12,49,20.20
2015,06,13,12,50,20.20
2015,06,13,12,51,20.20
2015,06,13,12,52,20.20
2015,06,13,12,53,20.30
2015,06,13,12,54,20.40
2015,06,13,12,55,20.40
2015,06,13,12,56,20.40
2015,06,13,12,57,20.30
2015,06,13,12,58,20.30
2015,06,13,12,59,20.40
2015,06,13,13,00,20.50
2015,06,13,13,01,20.60
2015,06,13,13,02,20.70
2015,06,13,13,03,20.70
2015,06,13,13,04,20.70
2015,06,13,13,05,20.60
2015,06,13,13,06,20.50
2015,06,13,13,07,20.40
2015,06,13,13,08,20.40
2015,06,13,13,09,20.40
2015,06,13,13,10,20.50
2015,06,13,13,11,20.50
2015,06,13,13,12,20.50
2015,06,13,13,13,20.50
2015,06,13,13,14,20.40
2015,06,13,13,15,20.40
2015,06,13,13,16,20.40
2015,06,13,13,17,20.40
2015,06,13,13,18,20.40
2015,06,13,13,19,20.40
2015,06,13,13,20,20.30
2015,06,13,13,21,20.30
2015,06,13,13,22,20.30
2015,06,13,13,23,20.30
2015,06,13,13,24,20.30
2015,06,13,13,25,20.30
2015,06,13,13,26,20.30
2015,06,13,13,27,20.30
2015,06,13,13,28,20.30
2015,06,13,13,29,20.40
2015,06,13,13,30,20.40
2015,06,13,13,31,20.40
2015,06,13,13,32,20.20
2015,06,13,13,33,20.20
2015,06,13,13,34,20.20
2015,06,13,13,35,20.30
2015,06,13,13,36,20.30
2015,06,13,13,37,20.50
2015,06,13,13,38,20.50
2015,06,13,13,39,20.60
2015,06,13,13,40,20.60
2015,06,13,13,41,20.60
2015,06,13,13,42,20.50
2015,06,13,13,43,20.40
2015,06,13,13,44,20.40
2015,06,13,13,45,20.50
2015,06,13,13,46,20.60
2015,06,13,13,47,20.70
2015,06,13,13,48,20.80
2015,06,13,13,49,20.90
2015,06,13,13,50,21.00
2015,06,13,13,51,21.00
2015,06,13,13,52,20.90
2015,06,13,13,53,20.80
2015,06,13,13,54,20.80
2015,06,13,13,55,20.80
2015,06,13,13,56,20.70
2015,06,13,13,57,20.70
2015,06,13,13,58,20.60
2015,06,13,13,59,20.60
2015,06,13,14,00,20.60
2015,06,13,14,01,20.60
2015,06,13,14,02,20.60
2015,06,13,14,03,20.60
2015,06,13,14,04,20.60
2015,06,13,14,05,20.70
2015,06,13,14,06,20.80
2015,06,13,14,07,20.90
2015,06,13,14,08,21.00
2015,06,13,14,09,21.10
2015,06,13,14,10,21.20
2015,06,13,14,11,21.30
2015,06,13,14,12,21.30
2015,06,13,14,13,21.30
2015,06,13,14,14,21.20
2015,06,13,14,15,21.20
2015,06,13,14,16,21.10
2015,06,13,14,17,21.00
2015,06,13,14,18,21.10
2015,06,13,14,19,21.10
2015,06,13,14,20,21.20
2015,06,13,14,21,21.20
2015,06,13,14,22,21.10
2015,06,13,14,23,21.10
2015,06,13,14,24,21.00
2015,06,13,14,25,21.10
2015,06,13,14,26,21.00
2015,06,13,14,27,21.00
2015,06,13,14,28,20.90
2015,06,13,14,29,21.00
2015,06,13,14,30,21.00
2015,06,13,14,31,21.00
2015,06,13,14,32,21.10
2015,06,13,14,33,21.10
2015,06,13,14,34,21.10
2015,06,13,14,35,21.10
2015,06,13,14,36,21.20
2015,06,13,14,37,21.20
2015,06,13,14,38,21.30
2015,06,13,14,39,21.30
2015,06,13,14,40,21.30
2015,06,13,14,41,21.30
2015,06,13,14,42,21.30
2015,06,13,14,43,21.30
2015,06,13,14,44,21.20
2015,06,13,14,45,21.20
2015,06,13,14,46,21.20
2015,06,13,14,47,21.20
2015,06,13,14,48,21.30
2015,06,13,14,49,21.30
2015,06,13,14,50,21.40
2015,06,13,14,51,21.40
2015,06,13,14,52,21.40
2015,06,13,14,53,21.50
2015,06,13,14,54,21.50
2015,06,13,14,55,21.60
2015,06,13,14,56,21.60
2015,06,13,14,57,21.50
2015,06,13,14,58,21.50
2015,06,13,14,59,21.60
2015,06,13,15,00,21.60
2015,06,13,15,01,21.60
2015,06,13,15,02,21.60
2015,06,13,15,03,21.60
2015,06,13,15,04,21.60
2015,06,13,15,05,21.70
2015,06,13,15,06,21.80
2015,06,13,15,07,21.80
2015,06,13,15,08,21.90
2015,06,13,15,09,21.90
2015,06,13,15,10,21.90
2015,06,13,15,11,21.90
2015,06,13,15,12,21.90
2015,06,13,15,13,21.90
2015,06,13,15,14,21.90
2015,06,13,15,15,21.90
2015,06,13,15,16,22.00
2015,06,13,15,17,22.10
2015,06,13,15,18,22.10
2015,06,13,15,19,22.00
2015,06,13,15,20,22.00
2015,06,13,15,21,22.00
2015,06,13,15,22,22.10
2015,06,13,15,23,22.10
2015,06,13,15,24,22.10
2015,06,13,15,25,22.00
2015,06,13,15,26,21.90
2015,06,13,15,27,21.90
2015,06,13,15,28,21.90
2015,06,13,15,29,22.00
2015,06,13,15,30,22.10
2015,06,13,15,31,22.10
2015,06,13,15,32,22.10
2015,06,13,15,33,22.20
2015,06,13,15,34,22.20
2015,06,13,15,35,22.20
2015,06,13,15,36,22.20
2015,06,13,15,37,22.30
2015,06,13,15,38,22.30
2015,06,13,15,39,22.50
2015,06,13,15,40,22.60
2015,06,13,15,41,22.60
2015,06,13,15,42,22.60
2015,06,13,15,43,22.60
2015,06,13,15,44,22.50
2015,06,13,15,45,22.40
2015,06,13,15,46,22.40
2015,06,13,15,47,22.40
2015,06,13,15,48,22.30
2015,06,13,15,49,22.30
2015,06,13,15,50,22.20
2015,06,13,15,51,22.10
2015,06,13,15,52,22.10
2015,06,13,15,53,22.10
2015,06,13,15,54,22.10
2015,06,13,15,55,22.20
2015,06,13,15,56,22.20
2015,06,13,15,57,22.20
2015,06,13,15,58,22.30
2015,06,13,15,59,22.30
2015,06,13,16,00,22.40
2015,06,13,16,01,22.50
2015,06,13,16,02,22.50
2015,06,13,16,03,22.50
2015,06,13,16,04,22.60
2015,06,13,16,05,22.60
2015,06,13,16,06,22.60
2015,06,13,16,07,22.60
2015,06,13,16,08,22.50
2015,06,13,16,09,22.50
2015,06,13,16,10,22.40
2015,06,13,16,11,22.30
2015,06,13,16,12,22.30
2015,06,13,16,13,22.20
2015,06,13,16,14,22.10
2015,06,13,16,15,22.00
2015,06,13,16,16,21.90
2015,06,13,16,17,21.90
2015,06,13,16,18,21.90
2015,06,13,16,19,22.00
2015,06,13,16,20,22.10
2015,06,13,16,21,22.10
2015,06,13,16,22,22.10
2015,06,13,16,23,22.20
2015,06,13,16,24,22.20
2015,06,13,16,25,22.20
2015,06,13,16,26,22.20
2015,06,13,16,27,22.20
2015,06,13,16,28,22.20
2015,06,13,16,29,22.20
2015,06,13,16,30,22.30
2015,06,13,16,31,22.30
2015,06,13,16,32,22.30
2015,06,13,16,33,22.40
2015,06,13,16,34,22.40
2015,06,13,16,35,22.40
2015,06,13,16,36,22.40
2015,06,13,16,37,22.40
2015,06,13,16,38,22.30
2015,06,13,16,39,22.30
2015,06,13,16,40,22.30
2015,06,13,16,41,22.40
2015,06,13,16,42,22.50
2015,06,13,16,43,22.50
2015,06,13,16,44,22.60
2015,06,13,16,45,22.70
2015,06,13,16,46,22.70
2015,06,13,16,47,22.60
2015,06,13,16,48,22.60
2015,06,13,16,49,22.60
2015,06,13,16,50,22.60
2015,06,13,16,51,22.50
2015,06,13,16,52,22.50
2015,06,13,16,53,22.50
2015,06,13,16,54,22.40
2015,06,13,16,55,22.40
2015,06,13,16,56,22.40
2015,06,13,16,57,22.40
2015,06,13,16,58,22.40
2015,06,13,16,59,22.40
2015,06,13,17,00,22.40
2015,06,13,17,01,22.40
2015,06,13,17,02,22.40
2015,06,13,17,03,22.40
2015,06,13,17,04,22.40
2015,06,13,17,05,22.40
2015,06,13,17,06,22.30
2015,06,13,17,07,22.30
2015,06,13,17,08,22.40
2015,06,13,17,09,22.40
2015,06,13,17,10,22.40
2015,06,13,17,11,22.50
2015,06,13,17,12,22.50
2015,06,13,17,13,22.50
2015,06,13,17,14,22.50
2015,06,13,17,15,22.50
2015,06,13,17,16,22.50
2015,06,13,17,17,22.40
2015,06,13,17,18,22.40
2015,06,13,17,19,22.40